| time (UTC) | temp C | wind direction | speed KPH | gust KPH | rain 1hr cm | rain 24hr cm | rain mn cm | humidity % | barometer mb |
| 20260831124006 | 22 | 230 | 16.1 | 33.8 | 0.00 | 1.14 | 1.14 | 59 | 1010.6 |
| 20260831123007 | 23 | 231 | 9.7 | 29.0 | 0.00 | 1.14 | 1.14 | 58 | 1010.6 |
| 20260831122003 | 22 | 218 | 12.9 | 25.7 | 0.00 | 1.14 | 1.14 | 61 | 1010.6 |
| 20260831121003 | 22 | 214 | 12.9 | 29.0 | 0.00 | 1.14 | 1.14 | 59 | 1010.7 |
| 20260831120006 | 22 | 228 | 16.1 | 32.2 | 0.00 | 1.14 | 1.14 | 61 | 1010.6 |
| 20260831115003 | 22 | 214 | 11.3 | 30.6 | 0.00 | 1.14 | 1.14 | 58 | 1010.6 |
| 20260831114003 | 22 | 239 | 11.3 | 25.7 | 0.00 | 1.14 | 1.14 | 61 | 1010.8 |
| 20260831113003 | 22 | 219 | 11.3 | 32.2 | 0.00 | 1.14 | 1.14 | 61 | 1010.8 |
| 20260831112223 | 22 | 218 | 11.3 | 33.8 | 0.00 | 1.14 | 1.14 | 62 | 1010.9 |
| 20260831111003 | 22 | 216 | 12.9 | 29.0 | 0.00 | 1.14 | 1.14 | 63 | 1010.8 |
| 20260831110006 | 22 | 222 | 11.3 | 30.6 | 0.00 | 1.14 | 1.14 | 65 | 1010.9 |
| 20260831105003 | 22 | 208 | 11.3 | 27.4 | 0.00 | 1.14 | 1.14 | 65 | 1010.9 |
| 20260831104006 | 21 | 195 | 9.7 | 27.4 | 0.00 | 1.14 | 1.14 | 69 | 1010.8 |
| 20260831103006 | 21 | 214 | 8.0 | 27.4 | 0.00 | 1.14 | 1.14 | 71 | 1010.9 |
| 20260831102006 | 21 | 207 | 9.7 | 20.9 | 0.00 | 1.14 | 1.14 | 74 | 1010.8 |
| 20260831101003 | 20 | 233 | 9.7 | 27.4 | 0.00 | 1.14 | 1.14 | 74 | 1010.9 |
| 20260831100220 | 20 | 220 | 8.0 | 27.4 | 0.00 | 1.14 | 1.14 | 76 | 1010.9 |
| 20260831095006 | 20 | 243 | 6.4 | 24.1 | 0.00 | 1.14 | 1.14 | 79 | 1010.9 |
| 20260831094006 | 20 | 237 | 8.0 | 17.7 | 0.00 | 1.14 | 1.14 | 81 | 1010.8 |
| 20260831093220 | 20 | 218 | 8.0 | 20.9 | 0.00 | 1.14 | 1.14 | 84 | 1010.9 |
| 20260831092008 | 19 | 224 | 8.0 | 24.1 | 0.00 | 1.14 | 1.14 | 89 | 1010.7 |
| 20260831091003 | 18 | 204 | 6.4 | 19.3 | 0.00 | 1.14 | 1.14 | 93 | 1010.6 |
| 20260831090003 | 17 | 211 | 4.8 | 19.3 | 0.00 | 1.14 | 1.14 | 94 | 1010.7 |
| 20260831085003 | 17 | 208 | 1.6 | 12.9 | 0.00 | 1.14 | 1.14 | 95 | 1010.7 |
| 20260831084003 | 17 | 165 | 1.6 | 8.0 | 0.00 | 1.14 | 1.14 | 95 | 1010.6 |
| 20260831083003 | 16 | 123 | 1.6 | 3.2 | 0.00 | 1.14 | 1.14 | 95 | 1010.5 |
| 20260831082003 | 16 | 165 | 3.2 | 6.4 | 0.00 | 1.14 | 1.14 | 95 | 1010.5 |
| 20260831081003 | 16 | 167 | 1.6 | 8.0 | 0.00 | 1.14 | 1.14 | 94 | 1010.5 |
| 20260831080005 | 16 | 161 | 3.2 | 9.7 | 0.00 | 1.14 | 1.14 | 94 | 1010.5 |
| 20260831075003 | 16 | 138 | 3.2 | 9.7 | 0.00 | 1.14 | 1.14 | 94 | 1010.5 |
| 20260831074003 | 16 | 122 | 3.2 | 8.0 | 0.00 | 1.14 | 1.14 | 94 | 1010.4 |
| 20260831073005 | 16 | 135 | 3.2 | 9.7 | 0.03 | 1.14 | 1.14 | 94 | 1010.3 |
| 20260831072217 | 15 | 158 | 3.2 | 8.0 | 0.05 | 1.14 | 1.14 | 94 | 1010.3 |
| 20260831071003 | 15 | 158 | 3.2 | 11.3 | 0.05 | 1.14 | 1.14 | 94 | 1010.3 |
| 20260831070005 | 15 | 149 | 3.2 | 11.3 | 0.10 | 1.14 | 1.14 | 94 | 1010.3 |
| 20260831065003 | 15 | 141 | 3.2 | 11.3 | 0.13 | 1.14 | 1.14 | 94 | 1010.3 |
| 20260831064003 | 15 | 133 | 3.2 | 11.3 | 0.15 | 1.14 | 1.14 | 94 | 1010.3 |
| 20260831063005 | 15 | 137 | 1.6 | 4.8 | 0.20 | 1.12 | 1.12 | 93 | 1010.4 |
| 20260831062219 | 15 | 147 | 3.2 | 6.4 | 0.25 | 1.09 | 1.12 | 93 | 1010.4 |
| 20260831061003 | 15 | 163 | 3.2 | 8.0 | 0.36 | 1.09 | 1.09 | 93 | 1010.4 |
| 20260831060005 | 15 | 160 | 3.2 | 9.7 | 0.61 | 1.04 | 1.04 | 93 | 1010.3 |
| 20260831055005 | 15 | 161 | 3.2 | 9.7 | 0.76 | 1.02 | 1.02 | 93 | 1010.1 |
| 20260831054005 | 15 | 161 | 3.2 | 8.0 | 0.81 | 0.99 | 0.99 | 92 | 1010.1 |
| 20260831053005 | 15 | 192 | 4.8 | 12.9 | 0.76 | 0.91 | 0.91 | 92 | 1010.3 |
| 20260831052006 | 15 | 192 | 3.2 | 9.7 | 0.69 | 0.84 | 0.84 | 92 | 1010.2 |
| 20260831051003 | 15 | 135 | 3.2 | 12.9 | 0.58 | 0.74 | 0.74 | 91 | 1009.7 |
| 20260831050008 | 15 | 249 | 3.2 | 9.7 | 0.30 | 0.43 | 0.43 | 91 | 1010.0 |
| 20260831045003 | 15 | 280 | 3.2 | 11.3 | 0.13 | 0.25 | 0.25 | 91 | 1010.1 |
| 20260831044006 | 15 | 0 | 0.0 | 6.4 | 0.05 | 0.15 | 0.15 | 90 | 1009.9 |
| 20260831043003 | 15 | 0 | 0.0 | 0.0 | 0.08 | 0.15 | 0.15 | 89 | 1009.6 |
| 20260831042003 | 15 | 214 | 0.0 | 3.2 | 0.13 | 0.15 | 0.15 | 88 | 1009.6 |
| 20260831041003 | 15 | 30 | 1.6 | 4.8 | 0.15 | 0.15 | 0.15 | 88 | 1009.9 |
| 20260831040006 | 16 | 13 | 0.0 | 4.8 | 0.15 | 0.15 | 0.15 | 87 | 1010.1 |
| 20260831035006 | 16 | 141 | 1.6 | 3.2 | 0.15 | 0.15 | 0.15 | 87 | 1010.2 |
| 20260831034003 | 16 | 110 | 1.6 | 4.8 | 0.13 | 0.13 | 0.13 | 86 | 1010.4 |
| 20260831033218 | 16 | 186 | 1.6 | 6.4 | 0.08 | 0.08 | 0.08 | 85 | 1010.4 |
| 20260831032003 | 16 | 231 | 4.8 | 9.7 | 0.05 | 0.05 | 0.05 | 84 | 1010.3 |
| 20260831031006 | 15 | 271 | 0.0 | 16.1 | 0.03 | 0.03 | 0.03 | 83 | 1010.0 |
| 20260831030006 | 15 | 205 | 3.2 | 4.8 | 0.00 | 0.00 | 0.00 | 82 | 1009.4 |
| 20260831025003 | 15 | 215 | 3.2 | 8.0 | 0.00 | 0.00 | 0.00 | 83 | 1009.2 |
| 20260831024218 | 15 | 207 | 3.2 | 8.0 | 0.00 | 0.00 | 0.00 | 83 | 1009.1 |
| 20260831023003 | 15 | 216 | 3.2 | 6.4 | 0.00 | 0.00 | 0.00 | 83 | 1009.0 |
| 20260831022006 | 15 | 197 | 1.6 | 8.0 | 0.00 | 0.00 | 0.00 | 83 | 1009.4 |
| 20260831021006 | 15 | 0 | 0.0 | 0.0 | 0.00 | 0.00 | 0.00 | 83 | 1009.6 |
| 20260831020217 | 15 | 0 | 0.0 | 0.0 | 0.00 | 0.00 | 0.00 | 82 | 1009.6 |
| 20260831015003 | 15 | 0 | 0.0 | 3.2 | 0.00 | 0.00 | 0.00 | 82 | 1009.5 |
| 20260831014003 | 15 | 0 | 1.6 | 0.0 | 0.00 | 0.00 | 0.00 | 82 | 1009.4 |
| 20260831013217 | 15 | 200 | 1.6 | 8.0 | 0.00 | 0.00 | 0.00 | 82 | 1009.6 |
| 20260831012003 | 15 | 221 | 0.0 | 4.8 | 0.00 | 0.00 | 0.00 | 82 | 1009.8 |
| 20260831011003 | 15 | 213 | 1.6 | 4.8 | 0.00 | 0.00 | 0.00 | 82 | 1009.7 |
| 20260831010006 | 15 | 224 | 1.6 | 6.4 | 0.00 | 0.00 | 0.00 | 82 | 1009.9 |
| 20260831005006 | 15 | 225 | 1.6 | 4.8 | 0.00 | 0.00 | 0.00 | 82 | 1010.1 |
| 20260831004221 | 15 | 223 | 3.2 | 8.0 | 0.00 | 0.00 | 0.00 | 82 | 1010.1 |
| 20260831003217 | 15 | 221 | 1.6 | 4.8 | 0.00 | 0.00 | 0.00 | 81 | 1010.2 |
| 20260831002006 | 15 | 0 | 0.0 | 0.0 | 0.00 | 0.00 | 0.00 | 81 | 1010.3 |
| 20260831001217 | 15 | 0 | 0.0 | 0.0 | 0.00 | 0.00 | 0.00 | 80 | 1010.3 |
| 20260831000003 | 15 | 0 | 0.0 | 0.0 | 0.00 | 0.00 | 0.00 | 80 | 1010.4 |
| 20260830235003 | 16 | 219 | 1.6 | 4.8 | 0.00 | 0.00 | 0.00 | 80 | 1010.5 |
| 20260830234006 | 16 | 204 | 1.6 | 4.8 | 0.00 | 0.00 | 0.00 | 80 | 1010.6 |
| 20260830233007 | 16 | 192 | 0.0 | 6.4 | 0.00 | 0.00 | 0.00 | 80 | 1010.7 |
| 20260830232218 | 16 | 0 | 0.0 | 0.0 | 0.00 | 0.00 | 0.00 | 79 | 1010.8 |
| 20260830231006 | 16 | 0 | 0.0 | 0.0 | 0.00 | 0.00 | 0.00 | 79 | 1010.9 |
| 20260830230003 | 16 | 0 | 0.0 | 0.0 | 0.00 | 0.00 | 0.00 | 79 | 1010.8 |
| 20260830225003 | 16 | 0 | 0.0 | 0.0 | 0.00 | 0.00 | 0.00 | 79 | 1010.8 |
| 20260830224003 | 16 | 0 | 0.0 | 0.0 | 0.00 | 0.00 | 0.00 | 79 | 1010.8 |
| 20260830223006 | 16 | 0 | 0.0 | 0.0 | 0.00 | 0.00 | 0.00 | 79 | 1010.8 |
| 20260830222006 | 16 | 0 | 0.0 | 0.0 | 0.00 | 0.00 | 0.00 | 79 | 1010.9 |
| 20260830221003 | 16 | 0 | 0.0 | 0.0 | 0.00 | 0.00 | 0.00 | 78 | 1010.9 |
| 20260830220004 | 17 | 0 | 0.0 | 0.0 | 0.00 | 0.00 | 0.00 | 78 | 1010.8 |
| 20260830215006 | 17 | 0 | 0.0 | 0.0 | 0.00 | 0.00 | 0.00 | 78 | 1010.8 |
| 20260830214003 | 17 | 0 | 0.0 | 0.0 | 0.00 | 0.00 | 0.00 | 78 | 1010.8 |
| 20260830213006 | 17 | 0 | 0.0 | 0.0 | 0.00 | 0.00 | 0.00 | 78 | 1010.8 |
| 20260830212003 | 17 | 0 | 0.0 | 0.0 | 0.00 | 0.00 | 0.00 | 78 | 1010.8 |
| 20260830211003 | 17 | 0 | 0.0 | 0.0 | 0.00 | 0.00 | 0.00 | 78 | 1010.8 |
| 20260830210007 | 17 | 0 | 0.0 | 0.0 | 0.00 | 0.00 | 0.00 | 77 | 1010.8 |
| 20260830205003 | 17 | 0 | 0.0 | 0.0 | 0.00 | 0.00 | 0.00 | 78 | 1010.8 |
| 20260830204006 | 18 | 0 | 0.0 | 0.0 | 0.00 | 0.00 | 0.00 | 77 | 1010.8 |
| 20260830203003 | 18 | 0 | 0.0 | 0.0 | 0.00 | 0.00 | 0.00 | 76 | 1010.8 |
| 20260830202217 | 18 | 223 | 1.6 | 3.2 | 0.00 | 0.00 | 0.00 | 76 | 1010.8 |
| 20260830201003 | 18 | 0 | 0.0 | 3.2 | 0.00 | 0.00 | 0.00 | 75 | 1010.8 |
| 20260830200007 | 18 | 0 | 0.0 | 0.0 | 0.00 | 0.00 | 0.00 | 74 | 1010.8 |
| 20260830195006 | 18 | 242 | 1.6 | 1.6 | 0.00 | 0.00 | 0.00 | 73 | 1010.9 |
| 20260830194003 | 19 | 249 | 1.6 | 3.2 | 0.00 | 0.00 | 0.00 | 72 | 1010.9 |
| 20260830193003 | 20 | 0 | 0.0 | 3.2 | 0.00 | 0.00 | 0.00 | 70 | 1010.8 |
| 20260830192221 | 20 | 331 | 0.0 | 1.6 | 0.00 | 0.00 | 0.00 | 69 | 1010.8 |
| 20260830191006 | 20 | 266 | 3.2 | 6.4 | 0.00 | 0.00 | 0.00 | 66 | 1010.8 |
| 20260830190007 | 20 | 261 | 3.2 | 6.4 | 0.00 | 0.00 | 0.00 | 65 | 1010.8 |
| 20260830185006 | 21 | 271 | 3.2 | 4.8 | 0.00 | 0.00 | 0.00 | 65 | 1010.7 |
| 20260830184003 | 21 | 263 | 3.2 | 6.4 | 0.00 | 0.00 | 0.00 | 64 | 1010.7 |
| 20260830183003 | 21 | 270 | 3.2 | 9.7 | 0.00 | 0.00 | 0.00 | 64 | 1010.5 |
| 20260830182003 | 21 | 272 | 3.2 | 6.4 | 0.00 | 0.00 | 0.00 | 63 | 1010.5 |
| 20260830181003 | 21 | 265 | 3.2 | 4.8 | 0.00 | 0.00 | 0.00 | 63 | 1010.3 |
| 20260830180220 | 22 | 262 | 3.2 | 4.8 | 0.00 | 0.00 | 0.00 | 62 | 1010.2 |
| 20260830175003 | 22 | 262 | 1.6 | 4.8 | 0.00 | 0.00 | 0.00 | 61 | 1010.2 |
| 20260830174218 | 22 | 266 | 1.6 | 3.2 | 0.00 | 0.00 | 0.00 | 60 | 1010.2 |
| 20260830173003 | 23 | 271 | 1.6 | 4.8 | 0.00 | 0.00 | 0.00 | 58 | 1010.0 |
| 20260830172006 | 23 | 289 | 3.2 | 8.0 | 0.00 | 0.00 | 0.00 | 57 | 1010.0 |
| 20260830171220 | 23 | 283 | 3.2 | 11.3 | 0.00 | 0.00 | 0.00 | 57 | 1010.0 |
| 20260830170220 | 23 | 280 | 1.6 | 9.7 | 0.00 | 0.00 | 0.00 | 57 | 1010.0 |
| 20260830165006 | 23 | 277 | 4.8 | 9.7 | 0.00 | 0.00 | 0.00 | 56 | 1009.9 |
| 20260830164003 | 23 | 281 | 4.8 | 9.7 | 0.00 | 0.00 | 0.00 | 56 | 1009.9 |
| 20260830163003 | 23 | 287 | 3.2 | 12.9 | 0.00 | 0.00 | 0.00 | 56 | 1009.9 |
| 20260830162003 | 23 | 288 | 3.2 | 4.8 | 0.00 | 0.00 | 0.00 | 56 | 1009.9 |
| 20260830161004 | 24 | 289 | 4.8 | 16.1 | 0.00 | 0.00 | 0.00 | 55 | 1009.8 |
| 20260830160007 | 24 | 275 | 6.4 | 14.5 | 0.00 | 0.00 | 0.00 | 55 | 1009.8 |
| 20260830155219 | 24 | 289 | 4.8 | 16.1 | 0.00 | 0.00 | 0.00 | 54 | 1009.7 |
| 20260830154003 | 25 | 275 | 8.0 | 20.9 | 0.00 | 0.00 | 0.00 | 53 | 1009.7 |
| 20260830153003 | 25 | 281 | 6.4 | 19.3 | 0.00 | 0.00 | 0.00 | 52 | 1009.7 |
| 20260830152221 | 25 | 282 | 6.4 | 16.1 | 0.00 | 0.00 | 0.00 | 52 | 1009.7 |
| 20260830151003 | 25 | 290 | 6.4 | 17.7 | 0.00 | 0.00 | 0.00 | 51 | 1009.6 |
| 20260830150221 | 26 | 287 | 6.4 | 17.7 | 0.00 | 0.00 | 0.00 | 50 | 1009.8 |
| 20260830145003 | 26 | 248 | 6.4 | 20.9 | 0.00 | 0.00 | 0.00 | 45 | 1009.8 |
| 20260830144006 | 26 | 225 | 8.0 | 20.9 | 0.00 | 0.00 | 0.00 | 47 | 1009.8 |
| 20260830143223 | 26 | 211 | 6.4 | 20.9 | 0.00 | 0.00 | 0.00 | 45 | 1009.7 |
| 20260830142003 | 26 | 216 | 11.3 | 17.7 | 0.00 | 0.00 | 0.00 | 47 | 1009.6 |
| 20260830141006 | 26 | 210 | 9.7 | 29.0 | 0.00 | 0.00 | 0.00 | 46 | 1009.7 |
| 20260830140003 | 26 | 227 | 11.3 | 24.1 | 0.00 | 0.00 | 0.00 | 47 | 1009.6 |
| 20260830135006 | 26 | 221 | 8.0 | 22.5 | 0.00 | 0.00 | 0.00 | 48 | 1009.6 |
| 20260830134221 | 26 | 233 | 8.0 | 17.7 | 0.00 | 0.00 | 0.00 | 47 | 1009.7 |
| 20260830133006 | 26 | 233 | 11.3 | 32.2 | 0.00 | 0.00 | 0.00 | 47 | 1009.7 |
| 20260830132006 | 26 | 215 | 11.3 | 20.9 | 0.00 | 0.00 | 0.00 | 48 | 1009.7 |
| 20260830131006 | 26 | 209 | 9.7 | 27.4 | 0.00 | 0.00 | 0.00 | 46 | 1009.7 |
| 20260830130003 | 26 | 234 | 8.0 | 20.9 | 0.00 | 0.00 | 0.00 | 48 | 1009.6 |
| 20260830125006 | 25 | 227 | 12.9 | 24.1 | 0.00 | 0.00 | 0.00 | 48 | 1009.7 |